This is the latest recevied weather packets stored in our database for station/object KC9MWQ-13. If no packets are shown the sender has not sent any weather packets the latest 10 day(s).
| Time | Temp. | Humidity | Pressure | Rain* | Wind** | Luminosity | Snow |
|---|---|---|---|---|---|---|---|
| 1777638374 | 4.44° C | 99% | 1013.8 hPa | 0 mm | - | 69 W/m² | - |
| 1777638070 | 4.44° C | 99% | 1013.8 hPa | 0 mm | - | 25 W/m² | - |
| 1777637767 | 4.44° C | 99% | 1013.9 hPa | 0 mm | - | 17 W/m² | - |
| 1777637463 | 4.44° C | 99% | 1013.6 hPa | 0 mm | - | 17 W/m² | - |
| 1777637161 | 5° C | 99% | 1013.7 hPa | 0 mm | - | 6 W/m² | - |
| 1777636857 | 5° C | 99% | 1013.2 hPa | 0 mm | - | 7 W/m² | - |
| 1777636552 | 5° C | 99% | 1013.3 hPa | 0 mm | - | 3 W/m² | - |
| 1777636249 | 5° C | 99% | 1013 hPa | 0 mm | - | 6 W/m² | - |
| 1777635949 | 5.56° C | 99% | 1013.1 hPa | 0 mm | - | 6 W/m² | - |
| 1777635645 | 5.56° C | 99% | 1012.7 hPa | 0 mm | - | 4 W/m² | - |
| 1777635342 | 5.56° C | 99% | 1012.9 hPa | 0 mm | - | 9 W/m² | - |
| 1777635039 | 5.56° C | 99% | 1012.7 hPa | 0 mm | - | 8 W/m² | - |
| 1777634735 | 5.56° C | 99% | 1012.5 hPa | 0 mm | - | 1 W/m² | - |
| 1777634433 | 5.56° C | 99% | 1012.7 hPa | 1.78 mm | - | 0 W/m² | - |
| 1777634129 | 6.11° C | 99% | 1012.6 hPa | 1.78 mm | - | 0 W/m² | - |
| 1777633826 | 6.67° C | 99% | 1012.5 hPa | 1.27 mm | - | 0 W/m² | - |
| 1777633524 | 6.67° C | 99% | 1012.1 hPa | 1.27 mm | - | 0 W/m² | - |
| 1777633221 | 6.67° C | 99% | 1012.2 hPa | 0 mm | - | 0 W/m² | - |
| 1777632918 | 7.22° C | 99% | 1012 hPa | 0 mm | - | 0 W/m² | - |
| 1777632614 | 7.78° C | 99% | 1012.1 hPa | 0 mm | - | 0 W/m² | - |
| 1777632311 | 7.78° C | 99% | 1012 hPa | 0 mm | - | 0 W/m² | - |
| 1777632009 | 7.78° C | 99% | 1012 hPa | 0 mm | - | 0 W/m² | - |
| 1777631706 | 7.78° C | 99% | 1012.3 hPa | 0 mm | - | 0 W/m² | - |
| 1777631404 | 7.78° C | 99% | 1011.8 hPa | 0 mm | - | 0 W/m² | - |
| 1777631100 | 7.78° C | 99% | 1012.2 hPa | 0 mm | - | 0 W/m² | - |
* Rain latest hour (hover to see other rain measurements)
** Current wind speed in m/s (hover to see current wind gust speed)